Other Surface Observations
Issued by NWS

Home | Current Version | Previous Version | Text Only | Print | Product List | Glossary On
Versions: 1 2 3 4 5 6 7 8 9 10 11 12 13 14 15 16 17 18 19 20 21 22 23 24 25 26 27 28 29 30 31 32 33 34 35 36 37 38 39 40 41 42 43 44 45 46 47 48 49 50
000
SXUS52 KTAE 251818
OSOTAE
OSOTAE
North Florida/South Alabama/Southwest Georgia Weather Roundup
National Weather Service Tallahassee Florida
200 PM EDT WED APR 25 2018

Note: "fair" indicates few or no clouds below 12,000 feet with no
significant weather and/or obstructions to visibility.

!FLZ017-115-028-034-025-251900
...North Florida...

CITY           SKY/WX    TMP DP  RH WIND       PRES   REMARKS
TALLAHASSEE    FAIR      77  51  40 NW14      29.93F
APALACHICOLA   PTSUNNY   76  57  51 NW6       29.95F
PERRY          FAIR      79  53  40 NW9G17    29.93F
CROSS CITY     FAIR      76  56  49 W13G18    29.93F
JACKSONVILLE   FAIR      77  55  46 W14G21    29.87F
$$

!FLZ112-006-005-002-011-251900
...Florida Panhandle...

CITY           SKY/WX    TMP DP  RH WIND       PRES   REMARKS
MARIANNA       FAIR      76  56  49 NW8       29.93F
BONIFAY        FAIR      76  57  51 VRB6      29.95F
PANAMA CITY NW FAIR      76  55  48 VRB3      29.93F
TYNDALL AFB    FAIR      72  60  65 W15       29.95F
TYND DRONE APT FAIR      70  60  70 W10       29.96F
DE FUNIAK SPR  FAIR      73  54  50 N10       29.96F
EGLIN AFB      MOSUNNY   79  52  39 N8        29.95F
DESTIN         FAIR      76  57  51 SW7       29.95F
HURLBURT       MOSUNNY   77  54  44 N12G17    29.94F
CRESTVIEW      FAIR      77  54  44 NE9       29.97F
PENSACOLA      FAIR      77  54  44 NW13      29.96F
$$

!ALZ063-066-251900
...South Alabama...

CITY           SKY/WX    TMP DP  RH WIND       PRES   REMARKS
DOTHAN         PTSUNNY   73  53  49 NW10G18   29.97F
OZARK CAIRNS   FAIR      73  55  53 NW8       29.95F
FT RUCKER HELI FAIR      73  56  56 NW10      29.95S
RUCKER HELI 3  PTSUNNY   72  56  55 N9G18     29.95F
RUCKER HELI 2  FAIR      72  56  56 W7        29.94F
FLORALA APT    FAIR      74  53  48 N12G17    29.97F
ANDALUSIA      PTSUNNY   75  55  49 NW12      29.97F
TROY           CLOUDY    67  55  65 NW12      29.98F
EUFALA         CLOUDY    72  56  57 NW8       29.93F
MOBILE         FAIR      77  54  44 N10       29.99F
$$

!GAZ120>161-251900
...Southwest and South Central Georgia...

CITY           SKY/WX    TMP DP  RH WIND       PRES   REMARKS
THOMASVILLE    PTSUNNY   77  55  47 W9        29.93F
BAINBRIDGE       N/A     77  61  57 NW9       29.93F
MOODY AFB      FAIR      76  54  46 NW9G20    29.89F
VALDOSTA       FAIR      76  55  48 VRB7      29.91F
MOULTRIE       FAIR      75  55  50 W7G17     29.92F
BLAKELY        PTSUNNY   75  55  50 NW6       29.93F
ALBANY         PTSUNNY   76  55  48 W12G18    29.93F
TIFTON         FAIR      74  56  52 NW14G21   29.90F
FITZGERALD     CLOUDY    76  58  53 NW12G21   29.92F
CORDELE        CLOUDY    76  54  47 NW9       29.92F
AMERICUS       CLOUDY    70  46  43 NW9G21    29.94S
HOMERVILLE     FAIR      75  54  46 W14       29.90F
$$

!GMZ750-755-770-775-251900
...Coastal and Buoy Obs...

STATION/POSITION TIME  TEMP    WIND        PRES    VSBY  WAVE
                       AIR SEA DIR/SP/G                  HT/PER
                 (UTC) (F)     (DEG/KT/KT) (MB)    (MI)  (FT/S)
KEATON BEACH     1800   68     260/ 12/ 14 1014.2F
CEDAR KEY        1800   70     290/  9/ 11 1014.8F
C TOWER          1800   67     280/ 14/ 15 1014.7F
APALACHICOLA BUO NOT AVBL
PANAMA CITY BUOY 1750   69 74  320/ 10/ 12 1015.3F         2/ 5
MOBILE BUOY      1800      73  330/  6/  8 1016.5
ORANGE BCH AL BU 1800   68     280/  8/ 12 1015.4
$$




USA.gov is the U.S. government's official web portal to all federal, state and local government web resources and services.